Regional Weather Roundup
Issued by NWS

Home | Current Version | Previous Version | Text Only | Print | Product List | Glossary Off
Versions: 1 2 3 4 5 6 7 8 9 10 11 12 13 14 15 16 17 18 19 20 21 22 23 24 25 26 27 28 29 30 31 32 33 34 35 36 37 38 39 40 41 42 43 44 45 46 47 48 49 50

000
ASUS43 KBIS 182159
RWRND

NORTH DAKOTA REGIONAL WEATHER ROUNDUP
NATIONAL WEATHER SERVICE BISMARCK ND
400 PM CST THU DEC 18 2014

NOTE: "FAIR" INDICATES FEW OR NO CLOUDS BELOW 12,000 FEET WITH NO
SIGNIFICANT WEATHER AND/OR OBSTRUCTIONS TO VISIBILITY.


NDZ001>003-009>011-017-182300-
NORTHWEST NORTH DAKOTA

CITY           SKY/WX    TMP DP  RH WIND       PRES   REMARKS
WILLISTON      CLOUDY    28  23  81 S7        29.94F
MINOT          CLOUDY    23  18  81 SE7       29.99F HAZE    WCI  15
MINOT AFB      CLOUDY    23  21  93 S8        29.99S WCI  14
$$

NDZ018>021-031>035-040>046-182300-
SOUTHWEST NORTH DAKOTA

CITY           SKY/WX    TMP DP  RH WIND       PRES   REMARKS
BISMARCK       CLOUDY    26  22  84 S7        30.03S WCI  18
GARRISON         N/A     25  21  85 SW7       29.98S WCI  17
HETTINGER ARPT MOCLDY    32  28  85 S3        29.95S
$$

NDZ004>008-012>016-024-026-027-054-182300-
NORTHEAST NORTH DAKOTA

CITY           SKY/WX    TMP DP  RH WIND       PRES   REMARKS
GRAND FORKS    CLOUDY    19  14  81 S13       30.17F WCI   6
DEVILS LAKE    CLOUDY    19  12  73 S10       30.06S WCI   8
$$

NDZ022-023-025-028>030-036>039-047>053-182300-
SOUTHEAST NORTH DAKOTA

CITY           SKY/WX    TMP DP  RH WIND       PRES   REMARKS
FARGO          CLOUDY    20  14  77 SE12      30.19S WCI   8
$$




USA.gov is the U.S. government's official web portal to all federal, state and local government web resources and services.